Location: Aalsum
(53.3404°N, 6.0062°E)
Time: 09:29:12
(UTC+00:00)

Cosmos 1980 Rocket - Pass Details

Date: 28 January 2023
Orbit: 828 x 851 km, 71.0° (Epoch: 19 March)

Event Time Altitude Azimuth Distance (km) Brightness Sun altitude
Rises 18:33:18 0° 219° (SW) 3,382 6.0 -21.0°
Reaches altitude 10° 18:35:45 10° 223° (SW) 2,455 5.2 -21.4°
Maximum altitude 18:41:22 67° 306° (NW) 916 2.5 -22.2°
Enters shadow 18:45:15 21° 25° (NNE) 1,829 3.7 -22.8°
